Location: Altenst�hlen
(53.5567°N, 8.9425°E)
Time: 11:58:22
(UTC+00:00)

Cosmos 990 Rocket - Pass Details

Date: 23 October 2019
Orbit: 746 x 769 km, 74.0° (Epoch: 19 November)

Event Time Altitude Azimuth Distance (km) Brightness Sun altitude
Rises 18:11:19 0° 332° (NNW) 3,226 7.7 -18.5°
Reaches altitude 10° 18:13:41 10° 331° (NNW) 2,301 6.9 -18.9°
Maximum altitude 18:18:54 74° 248° (WSW) 796 4.1 -19.6°
Enters shadow 18:23:49 12° 164° (SSE) 2,187 6.1 -20.4°
